Weather History for Ashtabula, OH

Change the Weather History Date:

Tuesday, September 17, 2013

  Actual Average (KYNG) Record (KYNG)
Temperature  
Mean Temperature 51 °F 62 °F  
Max Temperature 68 °F 72 °F 95 °F (1939)
Min Temperature 36 °F 51 °F 30 °F (1959)
Degree Days  
Heating Degree Days 14 5  
Month to date heating degree days 52  
Since 1 July heating degree days 90  
Cooling Degree Days 0 1  
Month to date cooling degree days 39  
Year to date cooling degree days 525  
Growing Degree Days 1 (Base 50)    
Moisture  
Dew Point 40 °F    
Average Humidity 73    
Maximum Humidity 90    
Minimum Humidity 34    
Precipitation  
Precipitation 0.00 in 0.13 in 2.17 in (1976)
Month to date precipitation 2.16  
Year to date precipitation 28.38  
Snow  
Snow 0.00 in 0.00 in - ()
Month to date snowfall 0.0  
Since 1 July snowfall 0.0  
Since 1 September snowfall 0.0  
Snow Depth -    
Sea Level Pressure  
Sea Level Pressure 30.37 in    
Wind  
Wind Speed 4 mph (ESE)    
Max Wind Speed 10 mph    
Max Gust Speed -    
Visibility 10 miles    
Events      
T = Trace of Precipitation, MM = Missing Value Source: NWS Daily Summary

Daily Weather History Graph

Daily Weather History Graph

Search for Another Location

Airport:

Trip Planner

Search our weather history database for the weather conditions in past years. The results will help you decide how hot, cold, wet, or windy it might be!

Date:

Astronomy

Sep. 17, 2013 Rise Set
Actual Time 7:05 AM EDT 7:28 PM EDT
Civil Twilight 6:37 AM EDT 7:56 PM EDT
Nautical Twilight 6:04 AM EDT 8:28 PM EDT
Astronomical Twilight 5:30 AM EDT 9:02 PM EDT
Moon 6:15 PM EDT (9/17) 4:56 AM EDT (9/17)
Length of Visible Light 13h 18m
Length of Day
12h 23m
Waxing Gibbous, 96% of the Moon is Illuminated
Sep 17
Waxing Gibbous
Sep 19
Full
Sep 26
Last Quarter
Oct 4
New
Oct 11
First Quarter

Hourly Weather History & Observations

Time (EDT) Temp. Windchill Dew Point Humidity Pressure Visibility Wind Dir Wind Speed Gust Speed Precip Events Conditions
12:53 AM 45.0 °F 43.5 °F 41.0 °F 86% 30.38 in 10.0 mi ESE 3.5 mph - N/A   Clear
1:53 AM 44.1 °F 42.5 °F 39.9 °F 85% 30.39 in 10.0 mi East 3.5 mph - N/A   Clear
2:53 AM 42.1 °F - 37.9 °F 85% 30.40 in 10.0 mi Calm Calm - N/A   Clear
3:53 AM 41.0 °F - 37.0 °F 86% 30.41 in 10.0 mi Calm Calm - N/A   Clear
4:53 AM 39.0 °F 36.8 °F 35.1 °F 86% 30.41 in 10.0 mi ESE 3.5 mph - N/A   Clear
5:53 AM 37.0 °F 34.5 °F 34.0 °F 89% 30.42 in 10.0 mi East 3.5 mph - N/A   Clear
6:53 AM 36.0 °F 32.1 °F 33.1 °F 89% 30.42 in 10.0 mi East 4.6 mph - N/A   Clear
7:53 AM 39.9 °F 36.7 °F 37.0 °F 89% 30.44 in 10.0 mi ESE 4.6 mph - N/A   Clear
8:53 AM 46.0 °F 43.1 °F 39.0 °F 76% 30.45 in 10.0 mi SE 5.8 mph - N/A   Clear
9:53 AM 50.0 °F - 41.0 °F 71% 30.45 in 10.0 mi SE 9.2 mph - N/A   Clear
10:53 AM 54.0 °F - 39.0 °F 57% 30.44 in 10.0 mi SSE 10.4 mph - N/A   Clear
11:53 AM 57.9 °F - 41.0 °F 53% 30.42 in 10.0 mi Variable 4.6 mph - N/A   Clear
12:53 PM 62.1 °F - 39.0 °F 43% 30.40 in 10.0 mi East 6.9 mph - N/A   Clear
2:53 PM 64.9 °F - 37.0 °F 36% 30.35 in 10.0 mi SSE 5.8 mph - N/A   Clear
4:53 PM 66.9 °F - 37.9 °F 34% 30.32 in 10.0 mi ESE 6.9 mph - N/A   Clear
5:53 PM 66.0 °F - 39.9 °F 38% 30.31 in 10.0 mi SE 4.6 mph - N/A   Clear
6:53 PM 62.1 °F - 48.9 °F 62% 30.30 in 10.0 mi NNE 4.6 mph - N/A   Clear
7:53 PM 54.0 °F - 48.9 °F 83% 30.30 in 10.0 mi Calm Calm - N/A   Clear
8:53 PM 50.0 °F - 46.9 °F 89% 30.30 in 10.0 mi East 3.5 mph - N/A   Clear
9:53 PM 48.9 °F - 45.0 °F 86% 30.30 in 10.0 mi Calm Calm - N/A   Clear
10:53 PM 46.9 °F - 44.1 °F 90% 30.29 in 10.0 mi SE 4.6 mph - N/A   Clear
11:53 PM 48.0 °F - 43.0 °F 83% 30.28 in 10.0 mi SE 4.6 mph - N/A   Clear